Time,TemperatureF,DewpointF,PressureIn,WindDirection,WindDirectionDegrees,WindSpeedMPH,WindSpeedGustMPH,Humidity,HourlyPrecipIn,Conditions,Clouds,dailyrainin,SoftwareType,DateUTC
2013-07-26 00:00:00,76.3,17.9,29.98,ENE,57,0.0,3.0,11,0.00,,,0.00,Wunderground v.1.15,2013-07-26 04:00:00,
2013-07-26 00:05:00,76.2,21.7,29.99,ENE,68,1.0,3.0,13,0.00,,,0.00,Wunderground v.1.15,2013-07-26 04:05:00,
2013-07-26 00:10:00,76.1,23.4,29.99,ENE,69,1.0,1.0,14,0.00,,,0.00,Wunderground v.1.15,2013-07-26 04:10:00,
2013-07-26 00:15:00,76.0,26.5,29.99,ENE,69,1.0,3.0,16,0.00,,,0.00,Wunderground v.1.15,2013-07-26 04:15:00,
2013-07-26 00:25:00,75.9,23.2,29.98,NNE,26,0.0,3.0,14,0.00,,,0.00,Wunderground v.1.15,2013-07-26 04:25:00,
2013-07-26 00:35:00,76.0,23.3,29.99,NE,38,1.0,3.0,14,0.00,,,0.00,Wunderground v.1.15,2013-07-26 04:35:00,
2013-07-26 00:40:00,75.8,23.2,29.99,NE,38,0.0,3.0,14,0.00,,,0.00,Wunderground v.1.15,2013-07-26 04:40:00,
2013-07-26 00:50:00,75.5,17.3,29.99,NE,38,0.0,3.0,11,0.00,,,0.00,Wunderground v.1.15,2013-07-26 04:50:00,
2013-07-26 00:55:00,75.3,14.9,29.99,NE,38,0.0,3.0,10,0.00,,,0.00,Wunderground v.1.15,2013-07-26 04:55:00,
2013-07-26 01:00:00,75.4,7.0,29.99,NE,38,0.0,3.0,7,0.00,,,0.00,Wunderground v.1.15,2013-07-26 05:00:00,
2013-07-26 01:10:00,75.1,-5.2,29.98,NE,38,0.0,3.0,4,0.00,,,0.00,Wunderground v.1.15,2013-07-26 05:10:00,
2013-07-26 01:20:00,74.9,-32.2,29.98,ENE,60,0.0,3.0,1,0.00,,,0.00,Wunderground v.1.15,2013-07-26 05:20:00,
2013-07-26 01:30:00,74.8,-5.5,29.98,NE,56,1.0,3.0,4,0.00,,,0.00,Wunderground v.1.15,2013-07-26 05:30:00,
2013-07-26 01:35:00,74.8,3.1,29.99,NE,56,1.0,3.0,6,0.00,,,0.00,Wunderground v.1.15,2013-07-26 05:35:00,
2013-07-26 01:40:00,74.7,3.1,29.98,NE,56,1.0,1.0,6,0.00,,,0.00,Wunderground v.1.15,2013-07-26 05:40:00,
2013-07-26 01:50:00,74.6,-0.9,29.98,NE,56,0.0,3.0,5,0.00,,,0.00,Wunderground v.1.15,2013-07-26 05:50:00,
2013-07-26 01:55:00,74.6,-11.5,29.98,NE,56,1.0,3.0,3,0.00,,,0.00,Wunderground v.1.15,2013-07-26 05:55:00,
2013-07-26 02:05:00,74.5,-19.5,29.98,North,360,1.0,2.0,2,0.00,,,0.00,Wunderground v.1.15,2013-07-26 06:05:00,
2013-07-26 02:15:00,74.3,-99.9,29.98,NNE,15,1.0,3.0,0,0.00,,,0.00,Wunderground v.1.15,2013-07-26 06:15:00,
2013-07-26 02:25:00,74.2,-99.9,29.98,NE,42,1.0,3.0,0,0.00,,,0.00,Wunderground v.1.15,2013-07-26 06:25:00,
2013-07-26 02:35:00,74.2,-99.9,29.98,NE,42,1.0,3.0,0,0.00,,,0.00,Wunderground v.1.15,2013-07-26 06:35:00,
2013-07-26 02:45:00,74.0,-99.9,29.98,NE,42,1.0,3.0,0,0.00,,,0.00,Wunderground v.1.15,2013-07-26 06:45:00,
2013-07-26 02:50:00,73.9,-99.9,29.98,NNE,32,1.0,3.0,0,0.00,,,0.00,Wunderground v.1.15,2013-07-26 06:50:00,
2013-07-26 03:00:00,73.8,-99.9,29.98,ENE,59,1.0,3.0,0,0.00,,,0.00,Wunderground v.1.15,2013-07-26 07:00:00,
2013-07-26 03:05:00,73.7,-99.9,29.98,NNE,25,1.0,3.0,0,0.00,,,0.00,Wunderground v.1.15,2013-07-26 07:05:00,
2013-07-26 03:15:00,73.7,-99.9,29.98,ENE,76,1.0,2.0,0,0.00,,,0.00,Wunderground v.1.15,2013-07-26 07:15:00,
2013-07-26 03:25:00,73.7,-99.9,29.98,NE,56,1.0,3.0,0,0.00,,,0.00,Wunderground v.1.15,2013-07-26 07:25:00,
2013-07-26 03:35:00,73.6,-99.9,29.99,NE,48,1.0,3.0,0,0.00,,,0.00,Wunderground v.1.15,2013-07-26 07:35:00,
2013-07-26 03:45:00,73.4,-99.9,29.98,NNE,25,1.0,3.0,0,0.00,,,0.00,Wunderground v.1.15,2013-07-26 07:45:00,
2013-07-26 03:55:00,73.2,-99.9,29.99,ENE,57,2.0,3.0,0,0.00,,,0.00,Wunderground v.1.15,2013-07-26 07:55:00,
2013-07-26 04:05:00,73.2,-99.9,29.99,ENE,73,1.0,3.0,0,0.00,,,0.00,Wunderground v.1.15,2013-07-26 08:05:00,
2013-07-26 04:15:00,73.2,-99.9,29.99,NNE,26,1.0,3.0,0,0.00,,,0.00,Wunderground v.1.15,2013-07-26 08:15:00,
2013-07-26 04:20:00,73.1,-99.9,29.99,ENE,59,1.0,1.0,0,0.00,,,0.00,Wunderground v.1.15,2013-07-26 08:20:00,
2013-07-26 04:25:00,73.1,-99.9,29.99,East,80,1.0,3.0,0,0.00,,,0.00,Wunderground v.1.15,2013-07-26 08:25:00,
2013-07-26 04:30:00,73.1,-99.9,29.99,ENE,61,1.0,1.0,0,0.00,,,0.00,Wunderground v.1.15,2013-07-26 08:30:00,
2013-07-26 04:40:00,73.2,-99.9,29.99,East,79,1.0,1.0,0,0.00,,,0.00,Wunderground v.1.15,2013-07-26 08:40:00,
2013-07-26 04:45:00,73.1,-99.9,29.99,East,86,1.0,3.0,0,0.00,,,0.00,Wunderground v.1.15,2013-07-26 08:45:00,
2013-07-26 04:55:00,73.1,-99.9,30.00,NE,54,2.0,3.0,0,0.00,,,0.00,Wunderground v.1.15,2013-07-26 08:55:00,
2013-07-26 05:00:00,73.0,-99.9,30.00,South,178,1.0,3.0,0,0.00,,,0.00,Wunderground v.1.15,2013-07-26 09:00:00,
2013-07-26 05:05:00,72.9,-99.9,30.00,ENE,64,1.0,3.0,0,0.00,,,0.00,Wunderground v.1.15,2013-07-26 09:05:00,
2013-07-26 05:15:00,72.8,-99.9,30.00,ENE,57,1.0,3.0,0,0.00,,,0.00,Wunderground v.1.15,2013-07-26 09:15:00,
2013-07-26 05:20:00,72.8,-99.9,30.00,ENE,69,1.0,1.0,0,0.00,,,0.00,Wunderground v.1.15,2013-07-26 09:20:00,
2013-07-26 05:30:00,72.7,-99.9,30.00,ENE,69,1.0,3.0,0,0.00,,,0.00,Wunderground v.1.15,2013-07-26 09:30:00,
2013-07-26 05:35:00,72.7,-99.9,30.01,ESE,107,1.0,3.0,0,0.00,,,0.00,Wunderground v.1.15,2013-07-26 09:35:00,
2013-07-26 05:45:00,72.6,-99.9,30.00,NE,42,1.0,3.0,0,0.00,,,0.00,Wunderground v.1.15,2013-07-26 09:45:00,
2013-07-26 05:55:00,72.5,-99.9,30.00,ENE,69,1.0,3.0,0,0.00,,,0.00,Wunderground v.1.15,2013-07-26 09:55:00,
2013-07-26 06:05:00,72.4,-99.9,30.01,NE,53,1.0,3.0,0,0.00,,,0.00,Wunderground v.1.15,2013-07-26 10:05:00,
2013-07-26 06:15:00,72.3,-99.9,30.01,NE,52,1.0,3.0,0,0.00,,,0.00,Wunderground v.1.15,2013-07-26 10:15:00,
2013-07-26 06:25:00,72.2,-99.9,30.02,NE,42,1.0,3.0,0,0.00,,,0.00,Wunderground v.1.15,2013-07-26 10:25:00,
2013-07-26 06:35:00,72.2,-99.9,30.02,NE,49,2.0,3.0,0,0.00,,,0.00,Wunderground v.1.15,2013-07-26 10:35:00,
2013-07-26 06:40:00,72.1,-99.9,30.02,SE,125,1.0,1.0,0,0.00,,,0.00,Wunderground v.1.15,2013-07-26 10:40:00,
2013-07-26 06:50:00,72.1,-99.9,30.02,East,80,1.0,1.0,0,0.00,,,0.00,Wunderground v.1.15,2013-07-26 10:50:00,
2013-07-26 06:55:00,72.1,-99.9,30.02,ENE,66,1.0,3.0,0,0.00,,,0.00,Wunderground v.1.15,2013-07-26 10:55:00,
2013-07-26 07:05:00,72.2,-99.9,30.02,SSE,155,2.0,3.0,0,0.00,,,0.00,Wunderground v.1.15,2013-07-26 11:05:00,
2013-07-26 07:10:00,72.3,-99.9,30.02,ENE,64,1.0,3.0,0,0.00,,,0.00,Wunderground v.1.15,2013-07-26 11:10:00,
2013-07-26 07:15:00,72.4,-99.9,30.02,ENE,76,2.0,3.0,0,0.00,,,0.00,Wunderground v.1.15,2013-07-26 11:15:00,
2013-07-26 07:20:00,72.5,-99.9,30.02,ENE,63,2.0,3.0,0,0.00,,,0.00,Wunderground v.1.15,2013-07-26 11:20:00,
2013-07-26 07:30:00,72.8,-99.9,30.03,East,79,2.0,2.0,0,0.00,,,0.00,Wunderground v.1.15,2013-07-26 11:30:00,
2013-07-26 07:40:00,73.2,-99.9,30.03,NE,55,1.0,3.0,0,0.00,,,0.00,Wunderground v.1.15,2013-07-26 11:40:00,
2013-07-26 07:50:00,73.4,-99.9,30.04,NE,49,1.0,3.0,0,0.00,,,0.00,Wunderground v.1.15,2013-07-26 11:50:00,
2013-07-26 08:00:00,73.8,-99.9,30.04,East,89,1.0,1.0,0,0.00,,,0.00,Wunderground v.1.15,2013-07-26 12:00:00,
2013-07-26 08:05:00,74.1,-1.3,30.04,SSE,161,1.0,3.0,5,0.00,,,0.00,Wunderground v.1.15,2013-07-26 12:05:00,
2013-07-26 08:15:00,74.8,25.6,30.04,ENE,67,2.0,3.0,16,0.00,,,0.00,Wunderground v.1.15,2013-07-26 12:15:00,
2013-07-26 08:25:00,75.5,35.1,30.04,East,86,2.0,3.0,23,0.00,,,0.00,Wunderground v.1.15,2013-07-26 12:25:00,
2013-07-26 08:30:00,76.0,44.8,30.04,South,173,1.0,1.0,33,0.00,,,0.00,Wunderground v.1.15,2013-07-26 12:30:00,
2013-07-26 08:40:00,76.8,50.0,30.05,ENE,77,1.0,3.0,39,0.00,,,0.00,Wunderground v.1.15,2013-07-26 12:40:00,
2013-07-26 08:50:00,77.4,55.0,30.05,SSW,205,2.0,2.0,46,0.00,,,0.00,Wunderground v.1.15,2013-07-26 12:50:00,
2013-07-26 09:00:00,78.2,56.9,30.05,ENE,59,1.0,3.0,48,0.00,,,0.00,Wunderground v.1.15,2013-07-26 13:00:00,
2013-07-26 09:05:00,78.5,60.5,30.05,East,90,1.0,3.0,54,0.00,,,0.00,Wunderground v.1.15,2013-07-26 13:05:00,
2013-07-26 09:15:00,79.1,64.0,30.05,South,178,1.0,3.0,60,0.00,,,0.00,Wunderground v.1.15,2013-07-26 13:15:00,
2013-07-26 09:20:00,79.4,64.3,30.05,SSW,192,2.0,2.0,60,0.00,,,0.00,Wunderground v.1.15,2013-07-26 13:20:00,
2013-07-26 09:25:00,79.8,63.2,30.05,ENE,75,1.0,3.0,57,0.00,,,0.00,Wunderground v.1.15,2013-07-26 13:25:00,
2013-07-26 09:35:00,80.3,66.6,30.05,South,172,2.0,2.0,63,0.00,,,0.00,Wunderground v.1.15,2013-07-26 13:35:00,
2013-07-26 09:40:00,80.5,67.2,30.05,SSE,158,2.0,2.0,64,0.00,,,0.00,Wunderground v.1.15,2013-07-26 13:40:00,
2013-07-26 09:50:00,80.9,66.2,30.05,NE,49,2.0,3.0,61,0.00,,,0.00,Wunderground v.1.15,2013-07-26 13:50:00,
2013-07-26 10:00:00,81.5,68.6,30.05,NE,51,2.0,3.0,65,0.00,,,0.00,Wunderground v.1.15,2013-07-26 14:00:00,
2013-07-26 10:10:00,81.6,67.8,30.06,South,186,2.0,3.0,63,0.00,,,0.00,Wunderground v.1.15,2013-07-26 14:10:00,
2013-07-26 10:15:00,81.6,68.7,30.06,ENE,76,2.0,3.0,65,0.00,,,0.00,Wunderground v.1.15,2013-07-26 14:15:00,
2013-07-26 10:25:00,82.0,69.5,30.06,ENE,60,2.0,3.0,66,0.00,,,0.00,Wunderground v.1.15,2013-07-26 14:25:00,
2013-07-26 10:35:00,82.7,69.3,30.06,ESE,111,2.0,3.0,64,0.00,,,0.00,Wunderground v.1.15,2013-07-26 14:35:00,
2013-07-26 10:40:00,82.9,69.5,30.06,SE,144,2.0,3.0,64,0.00,,,0.00,Wunderground v.1.15,2013-07-26 14:40:00,
2013-07-26 10:50:00,82.6,70.1,30.06,South,176,2.0,3.0,66,0.00,,,0.00,Wunderground v.1.15,2013-07-26 14:50:00,
2013-07-26 10:55:00,82.8,70.3,30.06,NE,52,2.0,3.0,66,0.00,,,0.00,Wunderground v.1.15,2013-07-26 14:55:00,
2013-07-26 11:05:00,82.8,70.3,30.06,SSW,205,1.0,3.0,66,0.00,,,0.00,Wunderground v.1.15,2013-07-26 15:05:00,
2013-07-26 11:15:00,82.6,69.2,30.06,ENE,73,1.0,3.0,64,0.00,,,0.00,Wunderground v.1.15,2013-07-26 15:15:00,
2013-07-26 11:25:00,83.2,70.7,30.06,ENE,76,1.0,3.0,66,0.00,,,0.00,Wunderground v.1.15,2013-07-26 15:25:00,
2013-07-26 11:35:00,83.5,70.0,30.06,NE,53,1.0,3.0,64,0.00,,,0.00,Wunderground v.1.15,2013-07-26 15:35:00,
2013-07-26 11:45:00,83.7,70.7,30.06,ENE,78,1.0,3.0,65,0.00,,,0.00,Wunderground v.1.15,2013-07-26 15:45:00,
2013-07-26 11:55:00,83.9,71.3,30.06,ENE,65,1.0,3.0,66,0.00,,,0.00,Wunderground v.1.15,2013-07-26 15:55:00,
2013-07-26 12:00:00,84.3,71.7,30.06,ENE,78,1.0,3.0,66,0.00,,,0.00,Wunderground v.1.15,2013-07-26 16:00:00,
2013-07-26 12:10:00,85.4,72.7,30.06,South,181,2.0,3.0,66,0.00,,,0.00,Wunderground v.1.15,2013-07-26 16:10:00,
2013-07-26 12:20:00,85.6,72.9,30.05,SSE,153,2.0,3.0,66,0.00,,,0.00,Wunderground v.1.15,2013-07-26 16:20:00,
2013-07-26 12:30:00,85.8,73.1,30.05,South,188,1.0,3.0,66,0.00,,,0.00,Wunderground v.1.15,2013-07-26 16:30:00,
2013-07-26 12:40:00,86.1,73.4,30.05,South,170,2.0,3.0,66,0.00,,,0.00,Wunderground v.1.15,2013-07-26 16:40:00,
2013-07-26 12:50:00,86.1,73.4,30.06,SSE,163,2.0,3.0,66,0.00,,,0.00,Wunderground v.1.15,2013-07-26 16:50:00,
2013-07-26 13:00:00,85.5,72.4,30.06,SW,229,2.0,2.0,65,0.00,,,0.00,Wunderground v.1.15,2013-07-26 17:00:00,
2013-07-26 13:05:00,85.5,72.8,30.05,SW,232,2.0,5.0,66,0.00,,,0.00,Wunderground v.1.15,2013-07-26 17:05:00,
2013-07-26 13:15:00,85.8,72.7,30.05,SW,229,3.0,4.0,65,0.00,,,0.00,Wunderground v.1.15,2013-07-26 17:15:00,
2013-07-26 13:20:00,86.1,73.0,30.05,South,174,3.0,3.0,65,0.00,,,0.00,Wunderground v.1.15,2013-07-26 17:20:00,
2013-07-26 13:30:00,87.0,74.3,30.05,South,191,2.0,2.0,66,0.00,,,0.00,Wunderground v.1.15,2013-07-26 17:30:00,
2013-07-26 13:40:00,87.2,74.0,30.05,SE,146,1.0,1.0,65,0.00,,,0.00,Wunderground v.1.15,2013-07-26 17:40:00,
2013-07-26 13:45:00,86.3,72.7,30.05,WSW,242,2.0,3.0,64,0.00,,,0.00,Wunderground v.1.15,2013-07-26 17:45:00,
2013-07-26 13:50:00,85.4,72.3,30.04,South,179,3.0,4.0,65,0.00,,,0.00,Wunderground v.1.15,2013-07-26 17:50:00,
2013-07-26 14:00:00,86.3,73.6,30.04,South,187,2.0,6.0,66,0.00,,,0.00,Wunderground v.1.15,2013-07-26 18:00:00,
2013-07-26 14:05:00,86.1,73.0,30.04,SSW,205,2.0,6.0,65,0.00,,,0.00,Wunderground v.1.15,2013-07-26 18:05:00,
2013-07-26 14:10:00,86.4,72.8,30.04,SSE,163,2.0,2.0,64,0.00,,,0.00,Wunderground v.1.15,2013-07-26 18:10:00,
2013-07-26 14:20:00,86.6,73.0,30.04,WSW,248,2.0,2.0,64,0.00,,,0.00,Wunderground v.1.15,2013-07-26 18:20:00,
2013-07-26 14:25:00,87.1,73.9,30.04,SSW,209,2.0,3.0,65,0.00,,,0.00,Wunderground v.1.15,2013-07-26 18:25:00,
2013-07-26 14:30:00,87.6,74.4,30.03,South,190,2.0,2.0,65,0.00,,,0.00,Wunderground v.1.15,2013-07-26 18:30:00,
2013-07-26 14:40:00,88.1,73.9,30.03,East,80,2.0,2.0,63,0.00,,,0.00,Wunderground v.1.15,2013-07-26 18:40:00,
2013-07-26 14:45:00,88.4,74.2,30.03,SSE,167,1.0,3.0,63,0.00,,,0.00,Wunderground v.1.15,2013-07-26 18:45:00,
2013-07-26 14:55:00,87.1,73.4,30.03,SW,229,2.0,4.0,64,0.00,,,0.00,Wunderground v.1.15,2013-07-26 18:55:00,
2013-07-26 15:00:00,86.2,73.0,30.03,SSW,192,2.0,3.0,65,0.00,,,0.00,Wunderground v.1.15,2013-07-26 19:00:00,
2013-07-26 15:05:00,85.5,72.8,30.03,South,188,2.0,3.0,66,0.00,,,0.00,Wunderground v.1.15,2013-07-26 19:05:00,
2013-07-26 15:10:00,85.2,72.6,30.02,South,183,2.0,3.0,66,0.00,,,0.00,Wunderground v.1.15,2013-07-26 19:10:00,
2013-07-26 15:15:00,84.8,72.2,30.02,SSW,201,1.0,3.0,66,0.00,,,0.00,Wunderground v.1.15,2013-07-26 19:15:00,
2013-07-26 15:25:00,84.6,71.5,30.02,SSW,193,1.0,2.0,65,0.00,,,0.00,Wunderground v.1.15,2013-07-26 19:25:00,
2013-07-26 15:35:00,84.7,71.6,30.02,SSE,155,1.0,3.0,65,0.00,,,0.00,Wunderground v.1.15,2013-07-26 19:35:00,
2013-07-26 15:45:00,85.5,72.8,30.02,SSW,196,2.0,3.0,66,0.00,,,0.00,Wunderground v.1.15,2013-07-26 19:45:00,
2013-07-26 15:50:00,85.2,72.6,30.02,SW,220,3.0,3.0,66,0.00,,,0.00,Wunderground v.1.15,2013-07-26 19:50:00,
2013-07-26 16:00:00,85.5,72.4,30.02,SSE,157,2.0,2.0,65,0.00,,,0.00,Wunderground v.1.15,2013-07-26 20:00:00,
2013-07-26 16:10:00,86.0,73.3,30.02,South,180,2.0,4.0,66,0.00,,,0.00,Wunderground v.1.15,2013-07-26 20:10:00,
2013-07-26 16:20:00,85.8,73.1,30.01,SSW,200,3.0,3.0,66,0.00,,,0.00,Wunderground v.1.15,2013-07-26 20:20:00,
2013-07-26 16:25:00,86.0,73.3,30.01,SSW,210,3.0,3.0,66,0.00,,,0.00,Wunderground v.1.15,2013-07-26 20:25:00,
2013-07-26 16:30:00,86.0,73.3,30.01,SW,215,2.0,2.0,66,0.00,,,0.00,Wunderground v.1.15,2013-07-26 20:30:00,
2013-07-26 16:40:00,85.9,73.2,30.01,SSW,192,2.0,3.0,66,0.00,,,0.00,Wunderground v.1.15,2013-07-26 20:40:00,
2013-07-26 16:50:00,85.4,72.7,30.01,South,180,3.0,3.0,66,0.00,,,0.00,Wunderground v.1.15,2013-07-26 20:50:00,
2013-07-26 17:00:00,85.2,72.6,30.01,SW,215,1.0,1.0,66,0.00,,,0.00,Wunderground v.1.15,2013-07-26 21:00:00,
2013-07-26 17:10:00,84.8,72.2,30.01,South,186,2.0,2.0,66,0.00,,,0.00,Wunderground v.1.15,2013-07-26 21:10:00,
2013-07-26 17:20:00,84.1,71.1,30.01,South,188,3.0,3.0,65,0.00,,,0.00,Wunderground v.1.15,2013-07-26 21:20:00,
2013-07-26 17:25:00,83.9,70.9,30.01,SSW,195,2.0,3.0,65,0.00,,,0.00,Wunderground v.1.15,2013-07-26 21:25:00,
2013-07-26 17:35:00,84.0,71.0,30.01,SSE,152,1.0,2.0,65,0.00,,,0.00,Wunderground v.1.15,2013-07-26 21:35:00,
2013-07-26 17:40:00,84.2,71.2,30.01,SW,223,1.0,3.0,65,0.00,,,0.00,Wunderground v.1.15,2013-07-26 21:40:00,
2013-07-26 17:45:00,84.2,71.6,30.01,SW,224,2.0,3.0,66,0.00,,,0.00,Wunderground v.1.15,2013-07-26 21:45:00,
2013-07-26 17:50:00,84.3,71.7,30.01,WSW,248,2.0,3.0,66,0.00,,,0.00,Wunderground v.1.15,2013-07-26 21:50:00,
2013-07-26 17:55:00,84.3,71.2,30.01,South,191,2.0,3.0,65,0.00,,,0.00,Wunderground v.1.15,2013-07-26 21:55:00,
2013-07-26 18:05:00,84.3,71.2,30.00,South,186,3.0,4.0,65,0.00,,,0.00,Wunderground v.1.15,2013-07-26 22:05:00,
2013-07-26 18:10:00,84.2,71.2,30.00,WSW,258,3.0,5.0,65,0.00,,,0.00,Wunderground v.1.15,2013-07-26 22:10:00,
2013-07-26 18:20:00,84.0,70.5,30.00,South,179,3.0,3.0,64,0.00,,,0.00,Wunderground v.1.15,2013-07-26 22:20:00,
2013-07-26 18:30:00,83.6,69.7,30.01,SSW,198,2.0,3.0,63,0.00,,,0.00,Wunderground v.1.15,2013-07-26 22:30:00,
2013-07-26 18:40:00,83.1,68.7,30.01,SSE,154,3.0,5.0,62,0.00,,,0.00,Wunderground v.1.15,2013-07-26 22:40:00,
2013-07-26 18:50:00,82.5,69.1,30.02,South,169,3.0,3.0,64,0.00,,,0.00,Wunderground v.1.15,2013-07-26 22:50:00,
2013-07-26 19:00:00,82.3,67.0,30.02,South,174,2.0,3.0,60,0.00,,,0.00,Wunderground v.1.15,2013-07-26 23:00:00,
2013-07-26 19:05:00,82.1,66.4,30.02,West,262,2.0,3.0,59,0.00,,,0.00,Wunderground v.1.15,2013-07-26 23:05:00,
2013-07-26 19:15:00,81.7,64.5,30.02,South,181,3.0,3.0,56,0.00,,,0.00,Wunderground v.1.15,2013-07-26 23:15:00,
2013-07-26 19:25:00,81.3,63.6,30.02,SSW,200,2.0,4.0,55,0.00,,,0.00,Wunderground v.1.15,2013-07-26 23:25:00,
2013-07-26 19:35:00,80.9,62.2,30.03,South,178,2.0,3.0,53,0.00,,,0.00,Wunderground v.1.15,2013-07-26 23:35:00,
2013-07-26 19:45:00,80.5,60.7,30.03,SSW,196,2.0,4.0,51,0.00,,,0.00,Wunderground v.1.15,2013-07-26 23:45:00,
2013-07-26 19:55:00,80.1,58.0,30.03,WSW,237,2.0,3.0,47,0.00,,,0.00,Wunderground v.1.15,2013-07-26 23:55:00,
2013-07-26 20:05:00,79.7,55.2,30.03,South,176,2.0,3.0,43,0.00,,,0.00,Wunderground v.1.15,2013-07-27 00:05:00,
2013-07-26 20:14:00,79.4,53.0,30.03,South,185,1.0,3.0,40,0.00,,,0.00,Wunderground v.1.15,2013-07-27 00:14:00,
2013-07-26 20:20:00,79.1,51.3,30.03,South,186,1.0,3.0,38,0.00,,,0.00,Wunderground v.1.15,2013-07-27 00:20:00,
2013-07-26 20:30:00,78.8,48.1,30.03,South,185,0.0,3.0,34,0.00,,,0.00,Wunderground v.1.15,2013-07-27 00:30:00,
2013-07-26 20:40:00,78.5,45.3,30.03,South,173,1.0,3.0,31,0.00,,,0.00,Wunderground v.1.15,2013-07-27 00:40:00,
2013-07-26 20:45:00,78.3,42.5,30.03,South,173,1.0,3.0,28,0.00,,,0.00,Wunderground v.1.15,2013-07-27 00:45:00,
2013-07-26 20:55:00,78.0,39.3,30.03,South,175,1.0,3.0,25,0.00,,,0.00,Wunderground v.1.15,2013-07-27 00:55:00,
2013-07-26 21:05:00,77.8,34.7,30.03,South,175,1.0,3.0,21,0.00,,,0.00,Wunderground v.1.15,2013-07-27 01:05:00,
2013-07-26 21:15:00,77.5,33.2,30.03,South,175,0.0,2.0,20,0.00,,,0.00,Wunderground v.1.15,2013-07-27 01:15:00,
2013-07-26 21:20:00,77.4,33.2,30.03,South,175,0.0,3.0,20,0.00,,,0.00,Wunderground v.1.15,2013-07-27 01:20:00,
2013-07-26 21:30:00,77.2,33.0,30.03,South,175,1.0,1.0,20,0.00,,,0.00,Wunderground v.1.15,2013-07-27 01:30:00,
2013-07-26 21:40:00,77.1,27.4,30.03,South,175,0.0,3.0,16,0.00,,,0.00,Wunderground v.1.15,2013-07-27 01:40:00,
2013-07-26 21:45:00,77.0,25.8,30.03,South,175,0.0,3.0,15,0.00,,,0.00,Wunderground v.1.15,2013-07-27 01:45:00,
2013-07-26 21:55:00,76.7,20.2,30.03,South,175,0.0,3.0,12,0.00,,,0.00,Wunderground v.1.15,2013-07-27 01:55:00,
2013-07-26 22:00:00,76.7,7.9,30.03,South,175,0.0,3.0,7,0.00,,,0.00,Wunderground v.1.15,2013-07-27 02:00:00,
2013-07-26 22:10:00,76.5,-4.3,30.03,South,175,0.0,3.0,4,0.00,,,0.00,Wunderground v.1.15,2013-07-27 02:10:00,
2013-07-26 22:20:00,76.4,-18.3,30.03,South,175,0.0,3.0,2,0.00,,,0.00,Wunderground v.1.15,2013-07-27 02:20:00,
2013-07-26 22:25:00,76.2,-10.4,30.03,South,175,0.0,3.0,3,0.00,,,0.00,Wunderground v.1.15,2013-07-27 02:25:00,
2013-07-26 22:35:00,76.0,-99.9,30.03,South,175,0.0,3.0,0,0.00,,,0.00,Wunderground v.1.15,2013-07-27 02:35:00,
2013-07-26 22:45:00,75.9,-99.9,30.04,South,175,0.0,3.0,0,0.00,,,0.00,Wunderground v.1.15,2013-07-27 02:45:00,
2013-07-26 22:55:00,75.6,-99.9,30.04,South,175,0.0,3.0,0,0.00,,,0.00,Wunderground v.1.15,2013-07-27 02:55:00,
2013-07-26 23:05:00,75.5,-99.9,30.04,South,175,0.0,3.0,0,0.00,,,0.00,Wunderground v.1.15,2013-07-27 03:05:00,
2013-07-26 23:15:00,75.3,-99.9,30.04,South,175,0.0,3.0,0,0.00,,,0.00,Wunderground v.1.15,2013-07-27 03:15:00,
2013-07-26 23:20:00,75.3,-99.9,30.04,South,175,0.0,3.0,0,0.00,,,0.00,Wunderground v.1.15,2013-07-27 03:20:00,
2013-07-26 23:30:00,75.2,-99.9,30.04,South,175,0.0,3.0,0,0.00,,,0.00,Wunderground v.1.15,2013-07-27 03:30:00,
2013-07-26 23:39:00,75.1,-99.9,30.03,South,175,0.0,3.0,0,0.00,,,0.00,Wunderground v.1.15,2013-07-27 03:39:00,
2013-07-26 23:45:00,75.0,-99.9,30.03,South,175,0.0,3.0,0,0.00,,,0.00,Wunderground v.1.15,2013-07-27 03:45:00,
2013-07-26 23:55:00,74.9,-99.9,30.04,South,175,0.0,3.0,0,0.00,,,0.00,Wunderground v.1.15,2013-07-27 03:55:00,